Weather History for KNRB - October, 2012

Change the Weather History Date:

Sunday, October 14, 2012

  Actual Average Record
Temperature  
Mean Temperature 78 °F -  
Max Temperature 84 °F 77 °F 87 °F (2003)
Min Temperature 73 °F 65 °F 55 °F (2004)
Cooling Degree Days 12    
Growing Degree Days 28 (Base 50)    
Moisture  
Dew Point 66 °F    
Average Humidity 69    
Maximum Humidity 83    
Minimum Humidity 56    
Precipitation  
Precipitation 0.68 in - - ()
Sea Level Pressure  
Sea Level Pressure 30.12 in    
Wind  
Wind Speed 13 mph (ESE)    
Max Wind Speed 22 mph    
Max Gust Speed 31 mph    
Visibility 7 miles    
Events Rain    
Averages and records for this station are not official NWS values.
T = Trace of Precipitation, MM = Missing Value Source: NWS Daily Summary

Daily Weather History Graph

Daily Weather History Graph

Search for Another Location

Airport or City:

Trip Planner

Search our weather history database for the weather conditions in past years. The results will help you decide how hot, cold, wet, or windy it might be!

Date:

Astronomy

Oct. 14, 2012 Rise Set
Actual Time 7:27 AM EDT 6:55 PM EDT
Civil Twilight 7:03 AM EDT 7:19 PM EDT
Nautical Twilight 6:35 AM EDT 7:47 PM EDT
Astronomical Twilight 6:07 AM EDT 8:15 PM EDT
Moon 6:26 AM EDT (10/14) 6:15 PM EDT (10/14)
Length of Visible Light 12h 15m
Length of Day
11h 27m
Waning Crescent, 1% of the Moon is Illuminated
Oct 14
Waning Crescent
Oct 15
New
Oct 21
First Quarter
Oct 29
Full
Nov 6
Last Quarter

Hourly Weather History & Observations

Time (EDT) Temp. Heat Index Dew Point Humidity Pressure Visibility Wind Dir Wind Speed Gust Speed Precip Events Conditions
12:49 AM 77.0 °F - 62.6 °F 61% 30.18 in 10.0 mi ESE 15.0 mph - N/A   Overcast
12:52 AM 77.0 °F - 63.0 °F 62% 30.18 in 10.0 mi ESE 11.5 mph 20.7 mph N/A   Overcast
1:52 AM 77.0 °F - 63.0 °F 62% 30.16 in 10.0 mi ESE 13.8 mph - N/A   Mostly Cloudy
2:52 AM 77.0 °F - 63.0 °F 62% 30.14 in 10.0 mi East 11.5 mph - N/A   Scattered Clouds
3:52 AM 77.0 °F - 64.0 °F 64% 30.13 in 10.0 mi East 11.5 mph - N/A   Mostly Cloudy
4:52 AM 77.0 °F - 64.0 °F 64% 30.13 in 10.0 mi ESE 10.4 mph - N/A   Mostly Cloudy
5:52 AM 75.9 °F - 63.0 °F 64% 30.12 in 10.0 mi ESE 5.8 mph - N/A   Partly Cloudy
6:52 AM 75.9 °F - 66.9 °F 74% 30.12 in 10.0 mi ESE 11.5 mph - 0.01 in   Overcast
7:32 AM 75.2 °F - 66.2 °F 73% 30.13 in 4.0 mi South 12.7 mph 18.4 mph 0.04 in Rain Rain
7:47 AM 73.4 °F - 66.2 °F 78% 30.14 in 1.8 mi SSE 17.3 mph 23.0 mph 0.19 in Rain Heavy Rain
7:52 AM 73.0 °F - 66.0 °F 79% 30.14 in 1.2 mi SE 9.2 mph 25.3 mph 0.33 in Rain Heavy Rain
8:04 AM 75.2 °F - 68.0 °F 78% 30.13 in 3.0 mi ESE 9.2 mph 20.7 mph 0.03 in Rain Light Rain
8:15 AM 75.2 °F - 68.0 °F 78% 30.13 in 7.0 mi ESE 17.3 mph 21.9 mph 0.04 in Rain Light Rain
8:23 AM 75.2 °F - 66.2 °F 73% 30.14 in 2.5 mi SSE 20.7 mph 27.6 mph 0.09 in Rain Light Rain
8:31 AM 73.4 °F - 66.2 °F 78% 30.14 in 1.2 mi ESE 18.4 mph 27.6 mph 0.14 in Rain Rain
8:35 AM 75.2 °F - 66.2 °F 73% 30.14 in 2.0 mi SE 13.8 mph 26.5 mph 0.15 in Rain Light Rain
8:45 AM 75.2 °F - 68.0 °F 78% 30.14 in 6.0 mi SE 16.1 mph - 0.15 in Rain Light Rain
8:52 AM 73.9 °F - 66.9 °F 79% 30.15 in 3.0 mi SE 21.9 mph 31.1 mph 0.17 in Rain Light Rain
8:54 AM 73.4 °F - 66.2 °F 78% 30.15 in 1.8 mi SE 16.1 mph 31.1 mph 0.05 in Rain Heavy Rain
9:07 AM 73.4 °F - 68.0 °F 83% 30.15 in 3.0 mi ESE 9.2 mph - 0.09 in Rain Light Rain
9:38 AM 75.2 °F - 68.0 °F 78% 30.15 in 2.5 mi SSE 11.5 mph - 0.16 in Rain Light Rain
9:44 AM 73.4 °F - 68.0 °F 83% 30.15 in 4.0 mi SSE 8.1 mph - 0.17 in Rain Light Rain
9:52 AM 75.0 °F - 68.0 °F 79% 30.15 in 6.0 mi SE 6.9 mph - 0.17 in Rain Light Rain
10:07 AM 78.8 °F - 68.0 °F 69% 30.15 in 10.0 mi ESE 15.0 mph 23.0 mph 0.00 in   Mostly Cloudy
10:52 AM 80.1 °F 82.7 °F 68.0 °F 67% 30.16 in 10.0 mi ESE 12.7 mph 20.7 mph 0.00 in   Mostly Cloudy
11:52 AM 82.9 °F 85.4 °F 66.9 °F 58% 30.16 in 10.0 mi ESE 13.8 mph - N/A   Mostly Cloudy
12:52 PM 82.9 °F 85.0 °F 66.0 °F 56% 30.14 in 10.0 mi ESE 10.4 mph - N/A   Mostly Cloudy
1:52 PM 82.9 °F 85.0 °F 66.0 °F 56% 30.12 in 10.0 mi East 9.2 mph - N/A   Scattered Clouds
2:52 PM 82.0 °F 84.1 °F 66.0 °F 58% 30.10 in 10.0 mi East 10.4 mph - N/A   Scattered Clouds
3:52 PM 82.9 °F 85.0 °F 66.0 °F 56% 30.08 in 10.0 mi East 12.7 mph - N/A   Scattered Clouds
4:52 PM 81.0 °F 83.0 °F 66.0 °F 60% 30.07 in 10.0 mi East 11.5 mph - N/A   Scattered Clouds
5:52 PM 79.0 °F - 66.0 °F 64% 30.07 in 10.0 mi East 10.4 mph - N/A   Mostly Cloudy
6:52 PM 78.1 °F - 66.0 °F 66% 30.07 in 10.0 mi East 9.2 mph - N/A   Mostly Cloudy
7:52 PM 78.1 °F - 66.0 °F 66% 30.06 in 10.0 mi East 12.7 mph - N/A   Scattered Clouds
8:52 PM 78.1 °F - 64.9 °F 64% 30.06 in 10.0 mi East 11.5 mph - N/A   Partly Cloudy
9:52 PM 78.1 °F - 64.9 °F 64% 30.05 in 10.0 mi East 10.4 mph - N/A   Scattered Clouds
10:52 PM 78.1 °F - 64.9 °F 64% 30.04 in 10.0 mi ESE 8.1 mph - N/A   Scattered Clouds
11:52 PM 78.1 °F - 64.0 °F 62% 30.03 in 10.0 mi ESE 8.1 mph - N/A   Partly Cloudy